SCP
0 0 0 0 0 0 0 0 0 0 0 0 0 0 0 0 0 0 0 0 0 0 0 0 0 0 0 0 0 0 0 0 0 0 0 0 0 0 0 0 0 0 0
0 0 0 0 0 0 0 0 0 0 0 0 0 0 0 0 0 0 0 0 0 0 0 0 0 0 0 0 0 0 0 0 0 0 0 0 0 0 0 0 0 0 0
0 0 0 0 0 0 0 0 0 0 0 0 0 0 0 0 0 0 0 0 0 0 0 0 0 0 0 0 0 0 0 0 0 0 0 0 0 0 0 0 0 0 0
0 0 0 0 0 0 0 0 0 0 0 0 0 0 0 0 0 0 0 0 0 0 0 0 0 0 0 0 0 0 0 0 0 0 0 0 0 0 0 0 0 0 0
0 0 0 0 0 0 0 0 0 0 0 0 0 0 0 0 0 0 0 0 0 0 0 0 0 0 0 0 0 0 0 0 0 0 0 0 0 0 0 0 0 0 0
0 0 0 0 0 0 0 0 0 0 0 0 0 0 0 0 0 0 0 0 0 0 0 0 0 0 0 0 0 0 0 0 0 0 0 0 0 0 0 0 0 0 0
0 0 0 0 0 0 0 0 0 0 0 0 0 0 0 0 0 0 0 0 0 0 0 0 0 0 0 0 0 0 0 0 0 0 0 0 0 0 0 0 0 0 0
0 0 0 0 0 0 0 0 0 0 0 0 0 0 0 0 0 0 0 0 0 0 0 0 0 0 0 0 0 0 0 0 0 0 0 0 0 0 0 0 0 0 0
0 0 0 0 0 0 0 0 0 0 0 0 0 0 0 0 0 0 0 0 0 0 0 0 0 0 0 0 0 0 0 0 0 0 0 0 0 0 0 0 0 0 0
0 0 0 0 0 0 0 0 0 0 0 0 0 0 0 0 0 0 0 0 0 0 0 0 0 0 0 0 0 0 0 0 0 0 0 0 0 0 0 0 0 0 0
0 0 0 0 0 0 0 0 0 0 0 0 0 0 0 0 0 0 0 0 0 0 0 0 0 0 0 0 0 0 0 0 0 0 0 0 0 0 0 0 0 0 0
0 0 0 0 0 0 0 0 0 0 0 0 0 0 0 0 0 0 0 0 0 0 0 0 0 0 0 0 0 0 0 0 0 0 0 0 0 0 0 0 0 0 0
0 0 0 0 0 0 0 0 0 0 0 0 0 0 0 0 0 0 0 0 0 0 0 0 0 0 0 0 0 0 0 0 0 0 0 0 0 0 0 0 0 0 0
0 0 0 0 0 0 0 0 0 0 0 0 0 0 0 0 0 0 0 0 0 0 0 0 0 0 0 0 0 0 0 0 0 0 0 0 0 0 0 0 0 0 0
0 0 0 0 0 0 0 0 0 0 0 0 0 0 0 0 0 0 0 0 0 0 0 0 0 0 0 0 0 0 0 0 0 0 0 0 0 0 0 0 0 0 0
0 0 0 0 0 0 0 0 0 0 0 0 0 0 0 0 0 0 0 0 0 0 0 0 0 0 0 0 0 0 0 0 0 0 0 0 0 0 0 0 0 0 0
0 0 0 0 0 0 0 0 0 0 0 0 0 0 0 0 0 0 0 0 0 0 0 0 0 0 0 0 0 0 0 0 0 0 0 0 0 0 0 0 0 0 0
0 0 0 0 0 0 0 0 0 0 0 0 0 0 0 0 0 0 0 0 0 0 0 0 0 0 0 0 0 0 0 0 0 0 0 0 0 0 0 0 0 0 0
0 0 0 0 0 0 0 0 0 0 0 0 0 0 0 0 0 0 0 0 0 0 0 0 0 0 0 0 0 0 0 0 0 0 0 0 0 0 0 0 0 0 0
0 0 0 0 0 0 0 0 0 0 0 0 0 0 0 0 0 0 0 0 0 0 0 0 0 0 0 0 0 0 0 0 0 0 0 0 0 0 0 0 0 0 0
0 0 0 0 0 0 0 0 0 0 0 0 0 0 0 0 0 0 0 0 0 0 0 0 0 0 0 0 0 0 0 0 0 0 0 0 0 0 0 0 0 0 0
0 0 0 0 0 0 0 0 0 0 0 0 0 0 0 0 0 0 0 0 0 0 0 0 0 0 0 0 0 0 0 0 0 0 0 0 0 0 0 0 0 0 0
0 0 0 0 0 0 0 0 0 0 0 0 0 0 0 0 0 0 0 0 0 0 0 0 0 0 0 0 0 0 0 0 0 0 0 0 0 0 0 0 0 0 0
0 0 0 0 0 0 0 0 0 0 0 0 0 0 0 0 0 0 0 0 0 0 0 0 0 0 0 0 0 0 0 0 0 0 0 0 0 0 0 0 0 0 0
0 0 0 0 0 0 0 0 0 0 0 0 0 0 0 0 0 0 0 0 0 0 0 0 0 0 0 0 0 0 0 0 0 0 0 0 0 0 0 0 0 0 0
0 0 0 0 0 0 0 0 0 0 0 0 0 0 0 0 0 0 0 0 0 0 0 0 0 0 0 0 0 0 0 0 0 0 0 0 0 0 0 0 0 0 0
Wind_Speed
2 2 2 2 2 2 3 2 3 3 2 3 3 3 4 4 4 3 3 10 10 9 9 10 10 10 9 9 8 7 6 5 4 3 2 1 0 0 1 2 3 4 4
2 1 1 1 1 1 1 2 3 2 2 2 2 3 4 4 4 4 3 6 11 11 11 12 12 12 11 11 11 10 9 8 7 6 5 4 3 2 2 1 2 2 3
2 2 1 1 2 2 2 2 3 2 2 2 3 5 4 4 4 4 4 3 5 11 12 13 13 12 12 12 12 12 11 11 10 9 8 7 6 5 4 3 3 2 2
3 2 2 2 2 1 1 1 2 2 2 3 3 3 3 3 4 5 4 3 3 4 8 13 12 12 12 12 12 12 12 11 12 12 11 10 9 8 7 6 6 5 4
2 2 2 2 2 1 1 2 2 2 3 3 3 3 3 3 4 4 5 5 4 3 2 5 9 10 10 10 11 12 11 11 11 12 13 13 12 12 11 10 9 8 7
1 1 1 2 2 1 2 2 3 3 2 3 3 4 4 5 5 5 5 3 2 2 1 1 2 4 7 8 8 9 9 9 8 10 12 14 14 14 14 13 12 11 10
1 1 0 1 1 1 2 3 2 3 3 2 2 3 5 7 7 6 3 1 0 1 1 1 0 0 0 2 3 5 7 8 8 8 9 12 14 15 16 16 15 14 13
1 1 1 1 1 1 2 3 2 2 2 1 1 2 4 4 4 2 1 2 1 1 2 2 2 3 3 3 6 8 8 9 9 8 8 9 11 14 16 16 17 16 16
3 3 2 2 2 1 2 2 2 2 2 2 2 3 2 3 3 3 1 1 2 2 2 2 4 5 6 5 5 9 11 10 10 10 9 9 9 10 13 15 17 17 18
4 3 3 3 2 2 2 2 2 2 2 3 3 3 3 2 2 3 2 1 1 2 2 3 4 5 6 5 7 11 11 11 11 10 10 10 9 10 10 12 13 15 17
4 4 4 3 3 2 3 3 3 3 2 2 2 2 2 2 3 3 3 2 1 2 3 4 4 5 6 6 5 8 11 11 11 10 10 9 9 8 8 7 7 9 11
3 4 3 3 3 3 3 3 3 3 3 3 2 2 2 2 1 2 3 2 1 0 3 4 5 5 5 5 8 11 11 11 10 10 9 9 9 9 8 7 6 5 6
2 3 3 3 2 3 3 3 3 3 3 3 3 2 2 1 2 1 1 1 1 0 2 4 4 4 5 5 5 10 11 13 12 11 11 10 10 10 9 7 6 6 6
3 4 3 2 3 3 3 2 2 2 2 2 2 3 2 2 2 2 1 1 1 1 1 3 3 5 4 4 7 9 7 12 12 12 12 12 12 11 11 9 8 7 5
3 3 2 2 2 2 2 2 2 2 2 2 3 3 2 2 3 3 2 1 1 1 0 2 2 4 3 3 7 5 5 10 12 12 12 12 12 12 12 10 10 9 8
3 2 2 2 2 2 2 2 2 2 2 2 2 3 3 2 2 2 2 2 2 0 0 2 2 3 3 3 6 4 4 9 11 11 11 11 12 12 12 12 11 9 8
3 2 2 2 2 2 2 2 2 2 3 3 3 3 3 3 3 3 3 2 3 2 0 2 2 2 3 3 3 3 3 4 4 10 10 10 10 11 11 12 12 11 9
3 3 2 2 2 2 2 2 2 3 3 3 3 3 3 3 4 3 3 3 2 2 1 1 1 2 2 2 3 3 3 3 3 8 10 9 9 9 10 10 10 11 10
3 2 2 2 2 2 2 3 3 3 4 4 4 4 4 4 4 3 3 3 2 2 2 2 1 1 1 1 2 2 2 2 3 5 8 8 8 8 8 8 9 9 9
3 3 3 3 2 2 2 2 3 4 5 5 5 5 5 5 4 3 3 3 3 3 2 2 1 1 1 1 2 2 2 3 2 3 5 5 6 7 7 7 8 8 8
3 3 3 3 3 2 2 3 3 4 4 5 5 5 5 6 7 5 4 3 3 3 2 2 1 1 1 2 2 2 2 3 2 3 3 3 3 2 3 4 5 6 6
3 3 3 3 3 3 4 4 4 4 4 4 3 3 3 4 5 6 6 6 5 3 2 2 1 1 1 1 2 2 2 3 3 3 3 4 2 2 1 1 3 5 5
4 3 3 3 4 4 6 5 6 4 4 3 2 1 1 2 3 2 3 5 5 6 5 1 2 1 1 2 2 2 2 1 2 3 2 3 3 2 2 2 4 4 5
4 3 3 3 4 5 6 6 6 4 3 2 2 2 1 1 2 2 2 2 2 2 2 3 2 2 2 2 1 0 1 2 3 2 1 1 3 3 3 3 2 2 4
3 3 3 4 4 4 7 7 6 2 2 3 2 2 1 1 1 1 1 1 1 0 1 2 1 1 2 2 2 2 2 2 2 2 2 1 2 3 3 3 2 2 5
4 4 4 4 4 4 8 8 7 2 2 2 2 2 2 2 2 1 0 0 0 0 0 1 2 3 2 2 1 1 1 1 1 2 2 2 2 3 4 3 2 3 4
Wind_Direction
181 172 190 174 208 193 175 210 246 257 247 253 251 248 263 259 246 230 188 195 201 213 232 246 251 252 247 243 241 239 235 234 237 235 241 253 284 35 70 71 85 83 81
160 126 224 169 229 211 229 226 250 256 262 265 278 280 269 268 261 253 223 204 211 217 227 239 247 251 253 250 245 238 231 230 230 230 230 231 231 228 215 174 115 106 104
152 158 250 206 228 227 234 242 279 298 298 295 283 275 269 265 274 276 265 230 209 217 226 237 245 251 256 259 255 249 237 230 228 228 227 227 228 226 224 216 197 175 151
175 177 210 235 243 236 233 243 263 281 274 265 265 271 275 274 266 264 266 262 235 210 218 229 241 251 257 262 263 261 252 238 229 227 227 226 225 224 223 223 217 208 197
168 173 205 238 245 240 243 250 247 253 271 276 277 281 285 282 276 272 267 265 258 232 198 210 225 239 254 263 269 272 269 258 242 232 229 227 225 224 223 223 221 217 211
162 181 223 258 274 257 257 258 256 255 255 272 290 290 281 273 267 260 256 262 274 254 184 142 205 233 242 259 274 284 288 285 270 253 239 232 227 225 224 223 221 219 218
86 105 320 302 307 282 273 276 272 273 269 270 297 295 277 259 252 244 231 218 311 36 80 75 100 86 238 243 291 316 320 315 306 288 268 250 237 231 227 225 223 221 220
58 63 21 327 324 316 306 300 297 280 272 237 223 285 303 307 292 254 167 138 91 49 58 62 55 51 45 56 50 29 5 346 331 316 299 280 258 244 236 232 227 224 222
58 48 30 6 348 342 304 307 310 288 277 271 223 224 255 278 330 334 6 86 77 58 46 54 59 53 50 55 46 29 19 3 344 329 312 297 281 265 251 242 235 229 224
68 47 29 10 356 348 329 319 325 309 288 278 278 243 232 237 259 301 324 359 43 57 50 55 59 55 51 56 48 28 18 4 349 335 322 312 299 281 269 257 245 238 230
89 65 36 17 7 4 356 347 337 326 304 280 275 281 277 267 235 234 267 290 354 36 52 58 59 55 51 54 42 21 18 6 354 343 335 331 324 311 292 285 269 253 238
109 87 52 22 15 17 6 354 341 334 332 317 304 295 284 277 272 249 252 260 265 348 56 55 57 54 51 48 32 23 21 13 2 352 351 357 2 1 346 318 299 277 255
104 84 61 31 26 19 7 356 338 336 343 336 334 334 344 348 341 320 284 282 291 249 99 68 52 51 48 46 22 21 22 19 16 14 17 19 19 16 7 352 334 313 283
92 79 60 40 38 24 8 358 347 351 358 354 0 8 12 19 15 10 351 330 295 277 135 105 63 48 39 41 24 26 18 23 26 27 31 33 31 27 22 22 19 7 344
83 73 63 54 52 36 12 2 16 13 30 32 25 31 40 35 28 17 11 12 242 248 232 92 79 41 29 42 28 24 16 24 29 34 38 39 38 34 31 32 32 31 25
86 75 65 62 56 40 20 30 31 35 67 57 45 58 52 38 36 27 20 21 27 345 222 85 79 52 31 29 31 26 17 28 29 34 39 38 36 35 33 35 34 32 31
98 83 73 66 57 37 28 52 58 59 82 73 61 72 65 53 49 32 29 35 37 32 82 92 84 56 45 24 10 9 21 27 20 34 37 36 33 34 36 36 36 37 37
100 88 80 77 70 47 34 57 70 65 79 80 71 74 69 66 55 39 38 42 36 28 61 98 78 56 48 16 4 10 17 25 22 29 32 33 32 34 34 34 33 33 33
109 108 103 100 93 75 59 61 77 78 76 74 70 72 68 70 61 46 43 36 20 25 50 88 84 67 51 22 8 5 13 12 9 24 22 23 26 29 31 32 32 32 30
122 118 106 103 100 92 83 79 90 92 86 74 66 64 60 61 57 45 46 28 23 29 45 74 78 60 42 9 30 5 355 353 356 19 10 5 11 19 24 32 32 27 22
119 117 118 114 109 106 98 96 101 105 103 93 79 75 73 73 67 59 58 37 33 39 48 58 59 47 28 31 17 3 3 339 356 23 1 341 348 358 6 26 31 17 6
136 132 130 129 129 116 117 118 108 99 102 104 97 90 95 77 71 66 64 59 58 64 61 52 51 64 35 42 29 20 18 13 337 346 5 323 337 351 337 20 9 5 354
153 154 151 146 129 131 140 130 121 113 113 117 121 117 103 100 76 50 52 56 54 60 59 68 74 55 61 35 44 17 14 354 277 289 2 318 332 342 326 352 3 360 347
158 161 153 143 138 150 151 146 137 124 133 148 149 141 129 112 101 70 55 50 46 65 58 58 81 65 69 54 53 301 269 307 295 299 67 315 323 327 326 327 316 354 343
161 160 153 154 154 165 169 166 158 156 167 179 173 153 132 128 133 77 62 21 355 298 139 117 84 332 332 339 354 28 15 20 338 331 15 21 329 329 320 317 314 341 332
164 160 166 176 178 184 191 187 186 184 187 187 180 180 182 180 198 215 85 278 282 280 58 290 296 288 275 279 334 108 127 120 301 305 356 33 4 359 330 313 327 331 331